sat.trackr.live / text

‹ back to catalog

IOD-2

NORAD 64538 · 2025-135L

PAYLOAD ACTIVE UNKNOWN

§ Identity

Operator
Country
SPN
Launch date
2025-06-23
Launch site
AFWTR
Launch vehicle
Mass (kg)
RCS (m²)

External: N2YO · Heavens-Above · Gunter

§ Orbital elements

Epoch: 2026-05-24T21:10:20.016768Z

Period
94.73 min
Inclination
97.4675°
Eccentricity
0.0003168
Mean motion
15.20160559 rev/d
Perigee alt
503.2 km
Apogee alt
507.5 km
Semi-major
6,883.5 km
B*
1.6377e-4
RAAN
259.7096°
Arg perigee
250.6744°
Mean anomaly
109.4148°
Rev number
5,128

§ Raw data

IOD-21 64538U 25135L   26144.88217612  .00003475  00000+0  16377-3 0  99992 64538  97.4675 259.7096 0003168 250.6744 109.4148 15.20160559 51287

JSON: /api/v1/satellites/64538 · /tle

For live sub-satellite position, see the globe view (requires WebGL).

§ Visibility from observer

Set your observer location to see the next 7 days of passes ≥ 10°. The values pass through the URL so the page stays shareable.

No JS? Fill the form by hand. The geolocation button needs JavaScript.

§ Radio — SatNOGS DB

ModeDescriptionDownlinkUplink
FM S-band telemetry 2.273 GHz

1 transmitter · refreshed weekly from db.satnogs.org